Regional Weather Roundup
Issued by NWS

Home | Current Version | Previous Version | Graphics & Text | Print | Product List | Glossary On
Versions: 1 2 3 4 5 6 7 8 9 10 11 12 13 14 15 16 17 18 19 20 21 22 23 24 25 26 27
000
ASUS45 KCYS 171910
RWRWY

WYOMING REGIONAL WEATHER ROUNDUP
NATIONAL WEATHER SERVICE CHEYENNE WY
100 PM MDT THU APR 17 2014

NOTE:  "FAIR" INDICATES FEW OR NO CLOUDS BELOW 12,000 FEET
WITH NO SIGNIFICANT WEATHER AND/OR OBSTRUCTIONS TO VISIBILITY.

WYZ001-172000-
YELLOWSTONE NATIONAL PARK

CITY           SKY/WX    TMP DP  RH WIND       PRES   REMARKS
LK YELLOWSTONE   N/A     42  14  32 SW9       30.02F
W YELLOWSTONE  NOT AVBL

$$
WYZ002>013-054>058-071-098>099-172000-
NORTHERN WYOMING

CITY           SKY/WX    TMP DP  RH WIND       PRES   REMARKS
JACKSON        SUNNY     48  19  32 SW10      30.02F
CODY           SUNNY     54  23  30 SE6       29.90F
GREYBULL       SUNNY     56  26  31 SE9       29.93F
WORLAND        SUNNY     58  22  24 VRB5      29.92F
SHERIDAN       MOSUNNY   56  30  37 SE9       29.95F
BUFFALO        MOSUNNY   53  31  42 NE10G18   29.95F
GILLETTE       PTSUNNY   53  31  42 S12G17    29.97F
HULETT         FAIR      48  32  53 SW12G18   30.03
NEWCASTLE      MOCLDY    41  32  70 SE9       30.07

$$
WYZ014>020-022>026-101>103-172000-
CENTRAL WYOMING

CITY           SKY/WX    TMP DP  RH WIND       PRES   REMARKS
BIG PINEY      SUNNY     49  15  25 S8        30.05F
PINEDALE       CLEAR     45  19  36 SW6       30.07F
DUBOIS         FAIR      46  14  27 W18G26    29.99F
LANDER         MOSUNNY   52  26  36 E6        29.96F
RIVERTON       SUNNY     51  22  31 SE5       29.98F
CASPER         SUNNY     56  24  29 SW14G22   29.98F
DOUGLAS        SUNNY     53  33  46 VRB7      30.02F

$$
WYZ021-027>030-104>119-172000-
SOUTHERN WYOMING

CITY           SKY/WX    TMP DP  RH WIND       PRES   REMARKS
EVANSTON       SUNNY     53  20  27 W14G28    30.08F
KEMMERER       CLEAR     52  19  28 SW16G25   30.07F
FORT BRIDGER   FAIR      55  20  25 W16       30.10F
ROCK SPRINGS   SUNNY     54  15  21 W14G22    30.06F
DIXON          FAIR      54  18  24 W10G20    30.11F
RAWLINS        SUNNY     53  16  23 W18G26    30.06F
SARATOGA       FAIR      52  18  25 SW20      30.09S
LARAMIE        SUNNY     47  17  30 CALM      30.06F
CHEYENNE       SUNNY     53  14  21 N7        30.05F
TORRINGTON     SUNNY     51  36  56 SE7       30.06F
PINE BLUFFS    FAIR      52  27  37 E6        30.07F

$$



USA.gov is the U.S. government's official web portal to all federal, state and local government web resources and services.